Regional Weather Roundup
Issued by NWS

Home | Current Version | Previous Version | Text Only | Print | Product List | Glossary On
Versions: 1 2 3 4 5 6 7 8 9 10 11 12 13 14 15 16 17 18 19 20 21 22 23 24 25 26 27 28 29 30 31 32 33 34 35 36 37 38 39 40 41 42 43 44 45 46 47 48 49 50
000
ASUS43 KTOP 280708
RWRKS

WEATHER ROUNDUP FOR KANSAS
NATIONAL WEATHER SERVICE GOODLAND KS
200 AM CDT TUE MAR 28 2017

NOTE:  "FAIR" INDICATES FEW OR NO CLOUDS BELOW 12,000 FEET WITH NO
SIGNIFICANT WEATHER AND/OR OBSTRUCTIONS TO VISIBILITY.

KSZ001>006-013>018-027>032-041>047-280800-
NORTHWEST KANSAS

CITY           SKY/WX    TMP DP  RH WIND       PRES   REMARKS
GOODLAND       MOCLDY    47  41  80 SE16      29.90F
HAYS             N/A     42  42 100 E9        29.96F FOG
HILL CITY      CLOUDY    42  42 100 E7        29.96F FOG
RUSSELL        CLOUDY    42  41  96 SE7       29.96F FOG
$$

KSZ061>065-074>080-084>089-280800-
SOUTHWEST KANSAS

CITY           SKY/WX    TMP DP  RH WIND       PRES   REMARKS
DODGE CITY     CLOUDY    46  44  93 SE12      29.93S
ELKHART          N/A     46  34  63 SE14        N/A
GARDEN CITY    CLOUDY    48  43  82 SE14      29.91S
GREAT BEND     CLEAR     43  42  97 E7        29.96F FOG
LIBERAL        PTCLDY    52  39  62 SE16      29.91S
PRATT          CLEAR     41  40  98 SE5       29.96S FOG
$$

KSZ066>073-081>083-090>101-280800-
SOUTHEAST KANSAS

CITY           SKY/WX    TMP DP  RH WIND       PRES   REMARKS
CHANUTE        CLOUDY    51  46  83 NE8       29.99S
COFFEYVILLE    CLOUDY    53  48  83 NE6       29.99S
HUTCHINSON     CLOUDY    48  45  89 E5        29.98F
MEDICINE LODGE   N/A     46  43  89 E7        29.95F
NEWTON         CLOUDY    49  47  93 E5        29.99S
PARSONS        CLOUDY    53  47  79 CALM      30.00S
WICHITA INTL   CLOUDY    52  46  80 E9        29.98F
WICHITA JABRA  CLOUDY    50  46  86 E5        29.99S
WICHITA MCCONL CLOUDY    51  45  78 E7        29.98F
WINFIELD       CLOUDY    52  46  80 NE5       30.00R
$$

KSZ007>012-019>026-033>040-048>060-102>105-280800-
NORTHEAST KANSAS

CITY           SKY/WX    TMP DP  RH WIND       PRES   REMARKS
CONCORDIA      CLOUDY    46  45  96 CALM      30.01R
EMPORIA        CLOUDY    50  48  93 NE6       29.99F
LAWRENCE       CLOUDY    51  46  83 N6        30.03R
MANHATTAN      CLOUDY    51  46  83 E3        30.01S
MARYSVILLE     PTCLDY    41  39  93 CALM      30.02S
OLATHE IND     CLOUDY    50  45  83 NW6       30.03R
OLATHE EXE     CLOUDY    49  47  93 CALM      30.02R
SALINA         CLOUDY    53  46  77 E7        29.99F
TOPEKA BILLARD CLOUDY    50  47  89 NE3       30.02S
TOPEKA FORBES  CLOUDY    51  45  79 NE3       30.01F
$$




USA.gov is the U.S. government's official web portal to all federal, state and local government web resources and services.